Location: *
(45.9500°N, 9.0833°E)
Time: 20:59:05
(UTC+00:00)

Tiros 1 - Pass Details

Date: 15 June 2021
Orbit: 630 x 664 km, 48.4° (Epoch: 05 August)

Event Time Altitude Azimuth Distance (km) Brightness Sun altitude
Rises 14:09:27 0° 276° (W) 2,948 11.1 49.8°
Reaches altitude 10° 14:11:48 10° 280° (W) 2,044 10.5 49.5°
Maximum altitude 14:16:29 64° 2° (N) 721 8.0 48.7°
Drops below altitude 10° 14:21:13 10° 84° (E) 2,065 9.5 47.9°
Sets 14:23:36 0° 88° (E) 2,981 10.2 47.5°
